You are not logged in, Click here to log in
奧斯陸加勒穆恩機場 OSL / ENGM 挪威歐倫薩可區
ICAO: ENGM Country: 挪威歐倫薩可區
Latitude: 60.1939 Longitude: 11.1003
Total Arrivals: 11 Total Departures: 12
Latest Arrival: FS12 (ENTC-ENGM)CHU. CHUHAO Latest Departure: FS18 (ENGM-EDDL)ALAN. LIU
Scenery:
METAR : ENGM 190420Z VRB02KT CAVOK M02/M04 Q0995

奧斯陸加勒穆恩機場 OSL

You are accessing this site from IP address 35.175.113.29. Virtual Airline. CMS by phpVMS.Website designed by Zumeweb and edited by Theo Bearman.
There is 0 User(s) Online: | and 6 Guest(s) Online.
All information on this site is for fight simulation purposes only. This site is for flight logging for pilots of Virtual Airline&模擬飛行論壇 FlySim only.